User: anonymous   Login
Location: Oshawa
(43.9000°N, 78.8670°W)
Time: 07:38:26
(UTC-05:00)
Language:

Altair - Orbit

View from above orbital plane
View from above orbital plane
View from above satellite
View from above satellite

Ground track
Ground track

The orbit data is extracted from the following two-line orbital elements,

1 00050U 60009B   17054.08529293 -.00000011  00000-0  69753-3 0  9991
2 00050  47.2305 277.8185 0113726 318.6119  40.6098 12.20099415522891
Epoch (UTC): 23 February 2017 02:02:49
Eccentricity: 0.0113726
inclination: 47.2305°
perigee height: 1501 km
apogee height: 1683 km
right ascension of ascending node: 277.8185°
argument of perigee: 318.6119°
revolutions per day: 12.20099415
mean anomaly at epoch: 40.6098°
orbit number at epoch: 52289

The dashed part of the orbit path shows where the satellite is in the earth's shadow,  

DLR